DAL1055 KSFO-KLAX

Flight info

Callsign DAL1055
Flight time 0h 51m
Altitude 31000
Route WESLA5 SUSEY DCT EBAYE DCT BURGL IRNMN2
Aircraft A320/M-SDE3FGHIRWY/LB1

Departure

Time 2026-04-25 02:53
Airport San Francisco International Airport (KSFO)

Arrival

Time 2026-04-25 03:45
Airport Los Angeles International Airport (KLAX)
Time Latitude Longitude Altitude Speed Heading
2026-04-25 02:17 37.61554 -122.38272 16 ft 0 kts 224°
2026-04-25 02:21 37.61554 -122.38271 16 ft 0 kts 224°
2026-04-25 02:41 37.61555 -122.38269 16 ft 1 kts 224°
2026-04-25 02:42 37.61567 -122.38257 18 ft 3 kts 197°
2026-04-25 02:42 37.61586 -122.38255 17 ft 3 kts 173°
2026-04-25 02:42 37.61598 -122.38256 16 ft 1 kts 177°
2026-04-25 02:42 37.61601 -122.38257 16 ft 1 kts 177°
2026-04-25 02:45 37.61601 -122.38256 16 ft 0 kts 177°
2026-04-25 02:45 37.61599 -122.38251 16 ft 2 kts 132°
2026-04-25 02:45 37.61590 -122.38231 15 ft 5 kts 120°
2026-04-25 02:45 37.61572 -122.38174 15 ft 7 kts 111°
2026-04-25 02:46 37.61553 -122.38122 14 ft 6 kts 118°
2026-04-25 02:46 37.61539 -122.38071 14 ft 7 kts 89°
2026-04-25 02:46 37.61592 -122.38010 15 ft 15 kts 26°
2026-04-25 02:46 37.61670 -122.37954 17 ft 11 kts 49°
2026-04-25 02:47 37.61672 -122.37833 18 ft 17 kts 96°
2026-04-25 02:47 37.61659 -122.37696 18 ft 16 kts 97°
2026-04-25 02:47 37.61643 -122.37551 19 ft 18 kts 97°
2026-04-25 02:47 37.61629 -122.37412 22 ft 14 kts 97°
2026-04-25 02:48 37.61617 -122.37303 24 ft 13 kts 97°
2026-04-25 02:48 37.61589 -122.37198 23 ft 13 kts 118°
2026-04-25 02:48 37.61538 -122.37079 22 ft 16 kts 118°
2026-04-25 02:48 37.61488 -122.36964 23 ft 16 kts 122°
2026-04-25 02:49 37.61431 -122.36879 20 ft 22 kts 131°
2026-04-25 02:49 37.61329 -122.36698 20 ft 26 kts 118°
2026-04-25 02:49 37.61251 -122.36518 15 ft 26 kts 121°
2026-04-25 02:49 37.61164 -122.36303 18 ft 23 kts 117°
2026-04-25 02:50 37.61108 -122.36168 18 ft 18 kts 116°
2026-04-25 02:50 37.61056 -122.36028 20 ft 17 kts 105°
2026-04-25 02:50 37.61081 -122.35919 18 ft 8 kts 39°
2026-04-25 02:50 37.61086 -122.35915 18 ft 0 kts 37°
2026-04-25 02:51 37.61088 -122.35913 18 ft 0 kts 37°
2026-04-25 02:52 37.61095 -122.35907 20 ft 7 kts 36°
2026-04-25 02:52 37.61154 -122.35874 19 ft 9 kts 10°
2026-04-25 02:52 37.61209 -122.35930 18 ft 14 kts 297°
2026-04-25 02:53 37.61323 -122.36202 15 ft 68 kts 297°
2026-04-25 02:53 37.61638 -122.36954 21 ft 124 kts 298°
2026-04-25 02:53 37.62114 -122.38076 124 ft 159 kts 297°
2026-04-25 02:53 37.62657 -122.39323 683 ft 168 kts 297°
2026-04-25 02:54 37.63221 -122.40662 1326 ft 177 kts 296°
2026-04-25 02:54 37.63802 -122.42052 2022 ft 182 kts 296°
2026-04-25 02:54 37.64405 -122.43479 2662 ft 186 kts 297°
2026-04-25 02:54 37.65040 -122.44985 3139 ft 205 kts 297°
2026-04-25 02:55 37.65750 -122.46669 3545 ft 228 kts 297°
2026-04-25 02:55 37.66492 -122.48523 4165 ft 241 kts 292°
2026-04-25 02:55 37.66802 -122.50639 4872 ft 253 kts 263°
2026-04-25 02:55 37.66111 -122.52682 5619 ft 261 kts 227°
2026-04-25 02:56 37.64572 -122.53872 6408 ft 267 kts 191°
2026-04-25 02:56 37.62722 -122.53763 7095 ft 275 kts 163°
2026-04-25 02:56 37.60913 -122.52848 7808 ft 282 kts 154°
2026-04-25 02:56 37.59133 -122.51768 8681 ft 285 kts 154°
2026-04-25 02:57 37.57331 -122.50655 9528 ft 291 kts 153°
2026-04-25 02:57 37.55490 -122.49552 10299 ft 297 kts 157°
2026-04-25 02:57 37.53479 -122.48660 10712 ft 316 kts 163°
2026-04-25 02:57 37.51301 -122.47893 11182 ft 332 kts 164°
2026-04-25 02:58 37.49090 -122.46862 11598 ft 348 kts 152°
2026-04-25 02:58 37.47076 -122.45088 12094 ft 360 kts 135°
2026-04-25 02:58 37.45350 -122.42765 12655 ft 369 kts 131°
2026-04-25 02:58 37.43610 -122.40338 13341 ft 375 kts 130°
2026-04-25 02:59 37.41872 -122.37874 14028 ft 379 kts 130°
2026-04-25 02:59 37.40114 -122.35390 14720 ft 381 kts 131°
2026-04-25 02:59 37.38342 -122.32916 15484 ft 381 kts 131°
2026-04-25 02:59 37.36568 -122.30432 16237 ft 382 kts 131°
2026-04-25 03:00 37.34763 -122.27959 16914 ft 385 kts 132°
2026-04-25 03:00 37.32942 -122.25475 17601 ft 387 kts 132°
2026-04-25 03:00 37.31219 -122.23131 18249 ft 391 kts 133°
2026-04-25 03:00 37.29341 -122.20588 18607 ft 401 kts 133°
2026-04-25 03:01 37.27418 -122.18007 18971 ft 410 kts 134°
2026-04-25 03:01 37.25443 -122.15367 19443 ft 416 kts 135°
2026-04-25 03:01 37.23445 -122.12720 20006 ft 420 kts 135°
2026-04-25 03:01 37.21424 -122.10054 20539 ft 424 kts 135°
2026-04-25 03:02 37.19381 -122.07344 21061 ft 428 kts 135°
2026-04-25 03:02 37.17339 -122.04612 21594 ft 431 kts 135°
2026-04-25 03:02 37.15283 -122.01843 22097 ft 435 kts 135°
2026-04-25 03:02 37.13215 -121.99053 22542 ft 440 kts 135°
2026-04-25 03:03 37.11117 -121.96223 22963 ft 445 kts 135°
2026-04-25 03:03 37.08999 -121.93373 23412 ft 449 kts 136°
2026-04-25 03:03 37.06857 -121.90498 23826 ft 453 kts 136°
2026-04-25 03:03 37.04693 -121.87603 24176 ft 457 kts 136°
2026-04-25 03:04 37.02512 -121.84690 24523 ft 461 kts 136°
2026-04-25 03:04 37.00309 -121.81747 24871 ft 464 kts 136°
2026-04-25 03:04 36.98093 -121.78787 25188 ft 469 kts 136°
2026-04-25 03:05 36.93600 -121.72791 25861 ft 476 kts 137°
2026-04-25 03:05 36.91329 -121.69764 26197 ft 479 kts 137°
2026-04-25 03:05 36.89043 -121.66719 26517 ft 482 kts 137°
2026-04-25 03:05 36.86741 -121.63652 26841 ft 486 kts 137°
2026-04-25 03:06 36.84420 -121.60561 27136 ft 489 kts 137°
2026-04-25 03:06 36.82076 -121.57451 27379 ft 494 kts 138°
2026-04-25 03:06 36.79707 -121.54317 27653 ft 498 kts 138°
2026-04-25 03:06 36.77323 -121.51169 27966 ft 500 kts 138°
2026-04-25 03:07 36.74931 -121.48006 28272 ft 503 kts 138°
2026-04-25 03:07 36.72528 -121.44825 28551 ft 506 kts 138°
2026-04-25 03:07 36.70108 -121.41623 28812 ft 508 kts 138°
2026-04-25 03:07 36.67679 -121.38411 29029 ft 512 kts 138°
2026-04-25 03:08 36.65227 -121.35177 29324 ft 513 kts 139°
2026-04-25 03:08 36.62775 -121.31948 29670 ft 514 kts 139°
2026-04-25 03:08 36.60320 -121.28714 30038 ft 514 kts 139°
2026-04-25 03:08 36.57868 -121.25490 30350 ft 513 kts 139°
2026-04-25 03:09 36.55414 -121.22268 30700 ft 512 kts 139°
2026-04-25 03:09 36.52972 -121.19062 30910 ft 511 kts 139°
2026-04-25 03:09 36.48097 -121.12662 30972 ft 508 kts 139°
2026-04-25 03:10 36.43241 -121.06317 30950 ft 507 kts 139°
2026-04-25 03:10 36.38523 -120.99810 30955 ft 509 kts 136°
2026-04-25 03:11 36.33943 -120.93086 30940 ft 509 kts 135°
2026-04-25 03:11 36.29376 -120.86364 30943 ft 509 kts 136°
2026-04-25 03:12 36.24761 -120.79722 30944 ft 508 kts 136°
2026-04-25 03:12 36.20102 -120.73121 30917 ft 508 kts 136°
2026-04-25 03:13 36.15458 -120.66530 30925 ft 509 kts 136°
2026-04-25 03:13 36.10813 -120.59917 30921 ft 509 kts 136°
2026-04-25 03:14 36.06174 -120.53328 30894 ft 508 kts 136°
2026-04-25 03:14 36.01530 -120.46749 30911 ft 508 kts 136°
2026-04-25 03:15 35.96884 -120.40187 30920 ft 508 kts 136°
2026-04-25 03:15 35.92232 -120.33612 30906 ft 508 kts 137°
2026-04-25 03:16 35.87538 -120.27233 30906 ft 501 kts 144°
2026-04-25 03:16 35.81956 -120.22327 30926 ft 489 kts 156°
2026-04-25 03:17 35.76151 -120.17964 30910 ft 489 kts 156°
2026-04-25 03:17 35.70352 -120.13599 30925 ft 488 kts 156°
2026-04-25 03:18 35.64560 -120.09245 30942 ft 487 kts 156°
2026-04-25 03:18 35.58782 -120.04890 30915 ft 488 kts 156°
2026-04-25 03:19 35.53002 -120.00525 30921 ft 488 kts 156°
2026-04-25 03:19 35.47225 -119.96168 30938 ft 487 kts 156°
2026-04-25 03:20 35.41452 -119.91828 30928 ft 487 kts 156°
2026-04-25 03:20 35.35676 -119.87499 30933 ft 486 kts 156°
2026-04-25 03:21 35.29916 -119.83189 30941 ft 485 kts 156°
2026-04-25 03:21 35.24410 -119.78250 30929 ft 492 kts 150°
2026-04-25 03:22 35.18980 -119.73164 30911 ft 491 kts 150°
2026-04-25 03:22 35.13557 -119.68104 30912 ft 490 kts 150°
2026-04-25 03:23 35.08127 -119.63058 30919 ft 490 kts 150°
2026-04-25 03:23 35.02717 -119.58018 30887 ft 489 kts 150°
2026-04-25 03:24 34.97309 -119.52988 30830 ft 489 kts 150°
2026-04-25 03:24 34.94611 -119.50485 30494 ft 488 kts 150°
2026-04-25 03:24 34.91896 -119.47975 29231 ft 489 kts 149°
2026-04-25 03:25 34.89162 -119.45471 28135 ft 493 kts 150°
2026-04-25 03:25 34.86395 -119.42978 27491 ft 496 kts 150°
2026-04-25 03:25 34.83623 -119.40505 26746 ft 493 kts 150°
2026-04-25 03:25 34.80864 -119.38057 26044 ft 489 kts 150°
2026-04-25 03:26 34.78164 -119.35657 25837 ft 468 kts 150°
2026-04-25 03:26 34.75634 -119.33394 25524 ft 454 kts 150°
2026-04-25 03:26 34.73068 -119.31110 25285 ft 445 kts 150°
2026-04-25 03:26 34.70565 -119.28912 24943 ft 442 kts 150°
2026-04-25 03:27 34.68079 -119.26751 24469 ft 439 kts 151°
2026-04-25 03:27 34.65627 -119.24627 24025 ft 436 kts 151°
2026-04-25 03:27 34.63116 -119.22459 23482 ft 437 kts 151°
2026-04-25 03:27 34.60645 -119.20332 22871 ft 436 kts 150°
2026-04-25 03:28 34.58179 -119.18209 22407 ft 432 kts 150°
2026-04-25 03:28 34.55746 -119.16114 21853 ft 430 kts 150°
2026-04-25 03:28 34.53329 -119.14006 21466 ft 425 kts 150°
2026-04-25 03:28 34.50946 -119.11900 21039 ft 422 kts 149°
2026-04-25 03:29 34.49378 -119.10507 20744 ft 420 kts 149°
2026-04-25 03:29 34.47040 -119.08426 20350 ft 415 kts 149°
2026-04-25 03:29 34.44730 -119.06368 19808 ft 408 kts 149°
2026-04-25 03:29 34.42447 -119.04347 19030 ft 403 kts 149°
2026-04-25 03:30 34.40190 -119.02376 18317 ft 397 kts 149°
2026-04-25 03:30 34.37976 -119.00463 17750 ft 390 kts 149°
2026-04-25 03:30 34.35766 -118.98562 17310 ft 387 kts 149°
2026-04-25 03:30 34.33577 -118.96677 16812 ft 386 kts 149°
2026-04-25 03:31 34.31406 -118.94757 16351 ft 385 kts 148°
2026-04-25 03:31 34.29274 -118.92825 15928 ft 382 kts 148°
2026-04-25 03:31 34.27175 -118.90903 15381 ft 375 kts 147°
2026-04-25 03:31 34.25102 -118.89000 14587 ft 371 kts 147°
2026-04-25 03:32 34.23065 -118.87123 13849 ft 366 kts 147°
2026-04-25 03:32 34.21101 -118.85309 13461 ft 349 kts 147°
2026-04-25 03:32 34.19232 -118.83576 13242 ft 330 kts 147°
2026-04-25 03:32 34.17413 -118.81898 12711 ft 321 kts 147°
2026-04-25 03:33 34.15677 -118.80249 12348 ft 316 kts 144°
2026-04-25 03:33 34.14035 -118.78536 12108 ft 316 kts 142°
2026-04-25 03:33 34.12396 -118.76741 11831 ft 314 kts 141°
2026-04-25 03:33 34.10813 -118.74980 11590 ft 312 kts 141°
2026-04-25 03:34 34.09219 -118.73211 11339 ft 310 kts 141°
2026-04-25 03:34 34.07629 -118.71458 11099 ft 309 kts 141°
2026-04-25 03:34 34.06057 -118.69733 10889 ft 300 kts 141°
2026-04-25 03:34 34.04537 -118.68017 10607 ft 298 kts 134°
2026-04-25 03:35 34.03367 -118.65963 10330 ft 298 kts 117°
2026-04-25 03:35 34.02720 -118.63604 10030 ft 297 kts 101°
2026-04-25 03:35 34.02475 -118.61142 9717 ft 295 kts 97°
2026-04-25 03:35 34.02248 -118.58697 9409 ft 292 kts 97°
2026-04-25 03:36 34.02017 -118.56247 9099 ft 289 kts 97°
2026-04-25 03:36 34.01788 -118.53842 8623 ft 292 kts 97°
2026-04-25 03:36 34.01556 -118.51412 8030 ft 290 kts 97°
2026-04-25 03:36 34.01334 -118.49040 7728 ft 275 kts 97°
2026-04-25 03:37 34.01131 -118.46841 7594 ft 256 kts 96°
2026-04-25 03:37 34.01186 -118.44734 7418 ft 250 kts 79°
2026-04-25 03:37 34.01538 -118.42656 7068 ft 250 kts 78°
2026-04-25 03:37 34.01902 -118.40555 6735 ft 248 kts 78°
2026-04-25 03:38 34.02252 -118.38532 6431 ft 246 kts 78°
2026-04-25 03:38 34.02595 -118.36533 6105 ft 244 kts 79°
2026-04-25 03:38 34.02893 -118.34541 6001 ft 238 kts 83°
2026-04-25 03:38 34.03112 -118.32558 5950 ft 242 kts 84°
2026-04-25 03:39 34.03313 -118.30539 5649 ft 241 kts 84°
2026-04-25 03:39 34.03515 -118.28533 5303 ft 240 kts 84°
2026-04-25 03:39 34.03709 -118.26532 4948 ft 239 kts 89°
2026-04-25 03:39 34.03385 -118.24621 4595 ft 230 kts 121°
2026-04-25 03:40 34.02315 -118.23308 4234 ft 216 kts 156°
2026-04-25 03:40 34.00911 -118.22767 3886 ft 209 kts 168°
2026-04-25 03:40 33.99476 -118.22433 3391 ft 211 kts 171°
2026-04-25 03:40 33.98017 -118.22192 2879 ft 213 kts 182°
2026-04-25 03:41 33.96686 -118.22773 2606 ft 199 kts 225°
2026-04-25 03:41 33.96171 -118.24209 2605 ft 190 kts 274°
2026-04-25 03:41 33.96536 -118.25734 2525 ft 189 kts 287°
2026-04-25 03:41 33.96555 -118.27328 2254 ft 172 kts 252°
2026-04-25 03:42 33.96358 -118.28573 2037 ft 157 kts 261°
2026-04-25 03:42 33.96248 -118.29841 1853 ft 148 kts 262°
2026-04-25 03:42 33.96132 -118.31061 1657 ft 144 kts 261°
2026-04-25 03:42 33.96017 -118.32252 1478 ft 142 kts 262°
2026-04-25 03:43 33.95912 -118.33445 1316 ft 143 kts 262°
2026-04-25 03:43 33.95792 -118.34624 1086 ft 141 kts 262°
2026-04-25 03:43 33.95666 -118.35786 863 ft 138 kts 259°
2026-04-25 03:43 33.95547 -118.36930 684 ft 137 kts 262°
2026-04-25 03:44 33.95424 -118.38066 490 ft 137 kts 263°
2026-04-25 03:44 33.95311 -118.39203 312 ft 137 kts 262°
2026-04-25 03:44 33.95191 -118.40342 161 ft 136 kts 262°
2026-04-25 03:44 33.95088 -118.41371 125 ft 104 kts 263°
2026-04-25 03:45 33.95024 -118.42019 126 ft 50 kts 263°
2026-04-25 03:45 33.94986 -118.42362 125 ft 38 kts 261°
2026-04-25 03:45 33.94915 -118.42585 124 ft 23 kts 239°
2026-04-25 03:45 33.94860 -118.42669 123 ft 10 kts 230°
2026-04-25 03:46 33.94850 -118.42683 125 ft 0 kts 227°
2026-04-25 03:48 33.94850 -118.42684 125 ft 1 kts 227°
2026-04-25 03:48 33.94801 -118.42734 123 ft 16 kts 216°
2026-04-25 03:48 33.94690 -118.42788 122 ft 16 kts 186°
2026-04-25 03:49 33.94634 -118.42708 125 ft 13 kts 86°
2026-04-25 03:49 33.94648 -118.42569 126 ft 21 kts 83°
2026-04-25 03:49 33.94669 -118.42363 126 ft 27 kts 82°
2026-04-25 03:49 33.94696 -118.42112 126 ft 33 kts 83°
2026-04-25 03:50 33.94717 -118.41899 126 ft 23 kts 83°
2026-04-25 03:50 33.94739 -118.41681 126 ft 26 kts 83°
2026-04-25 03:50 33.94761 -118.41477 122 ft 21 kts 81°
2026-04-25 03:50 33.94796 -118.41277 126 ft 29 kts 83°
2026-04-25 03:51 33.94820 -118.41035 123 ft 30 kts 83°
2026-04-25 03:51 33.94844 -118.40797 126 ft 32 kts 83°
2026-04-25 03:51 33.94856 -118.40618 126 ft 13 kts 104°
2026-04-25 03:51 33.94757 -118.40581 124 ft 17 kts 175°
2026-04-25 03:52 33.94659 -118.40569 123 ft 12 kts 174°
2026-04-25 03:52 33.94639 -118.40551 125 ft 2 kts 108°
2026-04-25 03:52 33.94635 -118.40530 122 ft 3 kts 106°
2026-04-25 03:52 33.94629 -118.40504 121 ft 3 kts 104°
2026-04-25 03:53 33.94626 -118.40490 124 ft 0 kts 104°